Regional Weather Roundup
Issued by NWS Charleston, SC

Current Version | Previous Version | Graphics & Text | Print | Product List | Glossary On
Versions: 1 2 3 4 5 6 7 8 9 10 11 12 13 14 15 16 17 18 19 20 21 22 23 24 25 26 27 28 29 30 31 32 33 34 35 36 37 38 39 40 41 42 43 44 45 46 47 48 49 50
000 ASUS42 KCHS 300812 RWRCHS REGIONAL WEATHER ROUNDUP NATIONAL WEATHER SERVICE CHARLESTON SC 400 AM EDT THU MAR 30 2017 NOTE: "FAIR" INDICATES FEW OR NO CLOUDS BELOW 12,000 FEET WITH NO SIGNIFICANT WEATHER AND/OR OBSTRUCTIONS TO VISIBILITY. NOT ALL STATIONS ARE QUALITY CONTROLLED. USE DATA WITH CAUTION... ESPECIALLY DEWPOINT OBSERVATIONS. SCZ027-030-031-034>040-042>050-300900- ...SOUTHEAST SOUTH CAROLINA... CITY SKY/WX TMP DP RH WIND PRES REMARKS N CHARLESTON MOCLDY 65 61 87 E5 30.03S WATERFRONT PRK N/A 66 64 93 E7 30.03F JOHNS ISLAND FAIR 66 64 94 E6 30.03F PINOPOLIS N/A N/A N/A N/A VRB3 29.96S MONCKS CORNER FAIR 59 57 94 CALM 30.04F SUMMERVILLE PTSUNNY 64 61 88 E3 30.04F BEAUFORT MCAS CLEAR 68 67 96 E8 30.01F BEAUFORT ARPT FAIR 66 64 94 E6 30.01F HILTON HEAD IS CLEAR 66 66 100 VRB6 30.02S WALTERBORO SUNNY 63 63 100 E3 30.03F ALLENDALE CLOUDY 68 64 88 SE7 30.01S ...SOUTHERN MIDLANDS AND PEE DEE... CITY SKY/WX TMP DP RH WIND PRES REMARKS GEORGETOWN FAIR 63 61 94 E7 30.06F KINGSTREE FAIR 59 55 88 E5 30.05F ORANGEBURG CLOUDY 65 61 87 VRB6 30.04S BARNWELL CLOUDY 68 64 88 SE8 30.03S AIKEN CLOUDY 63 61 94 SE8 30.06S MANNING FAIR 57 55 94 CALM 30.05F COLUMBIA CLOUDY 66 61 84 E8 30.03F SUMTER CLOUDY 63 57 82 SE5 30.04F FLORENCE CLEAR 56 55 97 E5 30.06F MYRTLE BEACH CLEAR 62 58 86 E10 30.07F N MYRTLE BEACH CLEAR 62 58 86 E9 30.06F $$ GAZ063-065-086>088-099>101-113>116-118-119-134>141-150-300900- ...SOUTHEAST GEORGIA... CITY SKY/WX TMP DP RH WIND PRES REMARKS SAVANNAH ARPT CLOUDY 67 65 93 SE6 30.02S FOG HUNTER AAF CLOUDY 66 66 100 E5 29.99S FORT STEWART CLOUDY 63 61 94 CALM 29.98F STATESBORO MOCLDY 64 64 100 E3 30.01F SYLVANIA CLOUDY N/A N/A N/A SE3 30.02F FOG CLAXTON PTSUNNY N/A N/A N/A NE5 30.00F ...CSRA...CENTRAL AND FAR SOUTHEAST GEORGIA... CITY SKY/WX TMP DP RH WIND PRES REMARKS THOMSON CLEAR 64 55 73 S3 30.04S AUGUSTA-BUSH CLOUDY 65 62 90 SE3 30.01S AUGUSTA-DANIEL MOCLDY 65 58 78 SE8 30.02S SWAINSBORO CLOUDY 66 59 77 SE6 30.00S VIDALIA CLEAR 66 63 88 SE3 29.99S EASTMAN FAIR 64 64 100 SE3 29.99F HAZLEHURST PTSUNNY 70 64 82 S3 29.97F ALMA CLOUDY 66 63 90 CALM 29.97F WAYCROSS CLOUDY 69 69 98 CALM 29.97F JESUP CLOUDY 68 63 83 NE5 30.00R BAXLEY CLOUDY 70 70 100 SE3 29.97F BRUNSWICK LGT RAIN 70 68 94 CALM 30.00S SAINT SIMONS CLOUDY 71 64 78 VRB3 29.99F $$ SCZ027-028-034-036>038-045-046-048>050-GAZ119-141-300900- ...LAKE AND SUPPLEMENTAL COASTAL OBSERVATIONS... STATION/POSITION TIME TEMP WIND PRES WAVE SWELL AIR SEA DIR/SP/G HT/PER HT/PER/DIR (UTC) (F) (DEG/KT/KT) (MB) (FT/S) (FT/S/D) WINYAH BAY 0645 63 70/ 8 1018.0 LAKE MURRAY 0720 65 110/ 5/ 11 1016.6F ACE BASIN NERRS NOT AVBL FORT PULASKI 0748 66 67 80/ 6/ 7 1016.4F SAPELO ISLAND 0700 66 100/ 5 1016.0 $$ ANZ835-935-AMZ111-154-330-350-352-354-370-450-454-472-300900- ...C-MAN AND BUOY OBSERVATIONS... STATION/POSITION TIME TEMP WIND PRES WAVE SWELL AIR SEA DIR/SP/G HT/PER HT/PER/DIR (UTC) (F) (DEG/KT/KT) (MB) (FT/S) (FT/S/D) BUOY 41004 0650 71 69 80/ 16/ 19 1016.5 6/10 3/110/10 BUOY 41008 0650 65 64 CALM 1016.0 2/11 FOLLY BEACH CMAN 0700 65 70/ 7/ 8 1017.9F CAPERS NEARSHORE NOT AVBL FRIPP NEARSHORE 0708 65 64 70/ 10/ 14 1016.4F STATION/POSITION TIME TEMP WIND PRES WAVE SWELL AIR SEA DIR/SP/G HT/PER HT/PER/DIR (UTC) (F) (DEG/KT/KT) (MB) (FT/S) (FT/S/D) 5E ST. MARYS GA 0730 68 N/A 2/11 2/120/11 FRYING PAN BUOY 0750 68 72 70/ 14/ 17 1018.0F 5/ 9 3/110/ 9 BUOY 41025 0750 63 76 50/ 14/ 17 1019.0F 7/ 9 5/ 70/ 9 CAPE LOOKOUT NC 0700 62 60/ 15/ 16 1019.4F BUOY 41002 0750 68 72 60/ 14/ 17 1017.4F 6/ 9 5/100/ 9 BUOY 41010 NOT AVBL ST AUGUSTINE FL 0800 68 69 200/ 3/ 3 1016.4F $$

USA.gov is the U.S. government's official web portal to all federal, state and local government web resources and services.